User: anonymous   Login
Location: Unspecified
(0.0000°N, 0.0000°E)
Time: 12:17:00
(UTC+00:00)
Language:

WGS F2 (USA 204) - Orbit

View from above orbital plane
View from above orbital plane
View from above satellite
View from above satellite

Ground track
Ground track

The orbit data is extracted from the following two-line orbital elements,

1 34713U 09017A   19110.90533675  .00000030  00000-0  00000+0 0  9997
2 34713   0.0182 209.3651 0000687 242.7593 142.6560  1.00271830 36724
Epoch (UTC): 20 April 2019 21:43:41
Eccentricity: 0.0000687
inclination: 0.0182°
perigee height: 35783 km
apogee height: 35789 km
right ascension of ascending node: 209.3651°
argument of perigee: 242.7593°
revolutions per day: 1.00271830
mean anomaly at epoch: 142.6560°
orbit number at epoch: 3672

The dashed part of the orbit path shows where the satellite is in the earth's shadow,  

DLR